Weather History for Jonesboro, AR

Change the Weather History Date:

Tuesday, January 29, 2013

  Actual Average Record
Temperature  
Mean Temperature 65 °F 38 °F  
Max Temperature 74 °F 47 °F 75 °F (1903)
Min Temperature 55 °F 29 °F 3 °F (1966)
Degree Days  
Heating Degree Days 0 27  
Month to date heating degree days 685 804  
Since 1 July heating degree days 1947 2246  
Cooling Degree Days 0 0  
Month to date cooling degree days 0 0  
Year to date cooling degree days 0 0  
Growing Degree Days 14 (Base 50)    
Moisture  
Dew Point -    
Average Humidity    
Maximum Humidity    
Minimum Humidity    
Precipitation  
Precipitation 1.34 in 0.12 in 3.67 in (1902)
Month to date precipitation 5.25 3.15  
Year to date precipitation 5.25 3.15  
Snow  
Snow 0.00 in - 5.90 in (2010)
Month to date snowfall 0.5  
Since 1 July snowfall 7.0  
Snow Depth 0.00 in    
Sea Level Pressure  
Sea Level Pressure 29.71 in    
Wind  
Wind Speed 17 mph (South)    
Max Wind Speed 33 mph    
Max Gust Speed 40 mph    
Visibility 8 miles    
Events Rain , Thunderstorm    
T = Trace of Precipitation, MM = Missing Value Source: NWS Daily Summary

Daily Weather History Graph

Daily Weather History Graph

Search for Another Location

Airport:

Trip Planner

Search our weather history database for the weather conditions in past years. The results will help you decide how hot, cold, wet, or windy it might be!

Date:

Astronomy

Jan. 29, 2013 Rise Set
Actual Time 7:04 AM CST 5:27 PM CST
Civil Twilight 6:37 AM CST 5:54 PM CST
Nautical Twilight 6:07 AM CST 6:24 PM CST
Astronomical Twilight 5:36 AM CST 6:55 PM CST
Moon 8:15 PM CST (1/29) 8:08 AM CST (1/29)
Length of Visible Light 11h 16m
Length of Day
10h 22m
Waning Gibbous, 93% of the Moon is Illuminated
Jan 29
Waning Gibbous
Feb 3
Last Quarter
Feb 10
New
Feb 17
First Quarter
Feb 25
Full

Hourly Weather History & Observations

Time (CST) Temp. Dew Point Humidity Pressure Visibility Wind Dir Wind Speed Gust Speed Precip Events Conditions
12:46 AM 62.6 °F - N/A% 29.99 in 10.0 mi South 13.8 mph - N/A   Mostly Cloudy
12:53 AM 62.1 °F - N/A% 29.99 in 10.0 mi South 13.8 mph - N/A   Overcast
1:35 AM 60.8 °F - N/A% 29.98 in 10.0 mi South 13.8 mph - N/A   Mostly Cloudy
1:53 AM 61.0 °F - N/A% 29.97 in 9.0 mi South 11.5 mph - N/A   Mostly Cloudy
2:50 AM 60.8 °F - N/A% 29.97 in 10.0 mi South 10.4 mph - N/A   Overcast
2:53 AM 61.0 °F - N/A% 29.96 in 10.0 mi South 10.4 mph - N/A   Overcast
3:53 AM 61.0 °F - N/A% 29.95 in 9.0 mi South 8.1 mph - N/A   Overcast
4:01 AM 60.8 °F - N/A% 29.96 in 8.0 mi South 6.9 mph - N/A   Overcast
4:48 AM 62.6 °F - N/A% 29.95 in 10.0 mi SSW 12.7 mph - N/A   Overcast
4:49 AM 64.0 °F - N/A% 29.94 in 10.0 mi SSW 13.8 mph 19.6 mph N/A   Overcast
5:53 AM 64.4 °F - N/A% 29.93 in 10.0 mi SSW 17.3 mph 23.0 mph N/A   Mostly Cloudy
6:53 AM 64.9 °F - N/A% 29.92 in 10.0 mi South 19.6 mph 28.8 mph N/A   Mostly Cloudy
7:53 AM 63.0 °F - N/A% 29.90 in 9.0 mi South 20.7 mph 25.3 mph N/A   Mostly Cloudy
8:53 AM 63.0 °F - N/A% 29.89 in 10.0 mi South 16.1 mph - N/A   Overcast
9:53 AM 66.0 °F - N/A% 29.87 in 10.0 mi South 16.1 mph - N/A   Overcast
10:53 AM 69.1 °F - N/A% 29.83 in 10.0 mi South 18.4 mph - N/A   Overcast
11:53 AM 72.0 °F - N/A% 29.79 in 10.0 mi South 26.5 mph 38.0 mph N/A   Mostly Cloudy
12:53 PM 73.0 °F - N/A% 29.73 in 10.0 mi South 24.2 mph 36.8 mph N/A   Overcast
1:53 PM 71.1 °F - N/A% 29.70 in 10.0 mi South 25.3 mph 31.1 mph N/A   Overcast
2:53 PM 71.1 °F - N/A% 29.66 in 10.0 mi South 21.9 mph 28.8 mph N/A   Overcast
3:53 PM 70.0 °F - N/A% 29.65 in 10.0 mi South 21.9 mph - N/A   Overcast
4:53 PM 68.0 °F - N/A% 29.62 in 10.0 mi South 21.9 mph 31.1 mph 0.01 in Rain Light Rain
5:53 PM 68.0 °F - N/A% 29.58 in 10.0 mi South 16.1 mph 24.2 mph 0.00 in Rain Light Rain
6:53 PM 69.1 °F - N/A% 29.53 in 10.0 mi South 18.4 mph 25.3 mph 0.00 in   Overcast
7:53 PM 69.1 °F - N/A% 29.49 in 10.0 mi South 18.4 mph 26.5 mph N/A   Overcast
8:32 PM 69.8 °F - N/A% 29.47 in 10.0 mi South 25.3 mph 35.7 mph 0.03 in Rain , Thunderstorm Light Rain
8:45 PM 69.8 °F - N/A% 29.47 in 10.0 mi South 20.7 mph 29.9 mph 0.03 in Rain , Thunderstorm Light Rain
8:53 PM 69.1 °F - N/A% 29.48 in 10.0 mi South 21.9 mph 28.8 mph 0.03 in Rain , Thunderstorm Light Rain
9:02 PM 68.0 °F - N/A% 29.48 in 9.0 mi South 20.7 mph 26.5 mph 0.01 in Rain , Thunderstorm Light Rain
9:20 PM 64.4 °F - N/A% 29.60 in 2.5 mi NW 19.6 mph 25.3 mph 0.12 in Rain , Thunderstorm Heavy Thunderstorms and Rain
9:23 PM 59.0 °F - N/A% 29.56 in 1.8 mi NW 16.1 mph 25.3 mph 0.26 in Rain , Thunderstorm Heavy Thunderstorms and Rain
9:31 PM 57.2 °F - N/A% 29.54 in 0.5 mi NNW 24.2 mph 40.3 mph 0.74 in Rain , Thunderstorm Heavy Thunderstorms and Rain
9:34 PM 57.2 °F - N/A% 29.55 in 0.8 mi NNW 19.6 mph 40.3 mph 0.86 in Rain , Thunderstorm Heavy Thunderstorms and Rain
9:39 PM 55.4 °F - N/A% 29.55 in 1.0 mi NNW 13.8 mph 36.8 mph 0.94 in Rain , Thunderstorm Heavy Rain
9:44 PM 55.4 °F - N/A% 29.56 in 2.0 mi NW 10.4 mph 33.4 mph 0.97 in Rain , Thunderstorm Heavy Thunderstorms and Rain
9:51 PM 55.4 °F - N/A% 29.55 in 3.0 mi NNW 12.7 mph 19.6 mph 1.01 in Rain , Thunderstorm Thunderstorms and Rain
9:53 PM 55.9 °F - N/A% 29.54 in 3.0 mi NNW 11.5 mph 19.6 mph 1.02 in Rain , Thunderstorm Thunderstorms and Rain
10:30 PM 55.4 °F - N/A% 29.55 in 7.0 mi North 5.8 mph - 0.09 in Rain Light Rain
10:53 PM 55.9 °F - N/A% 29.55 in 2.5 mi NNW 5.8 mph - 0.19 in Rain Heavy Rain
11:03 PM 55.4 °F - N/A% 29.56 in 9.0 mi North 3.5 mph - 0.01 in Rain Light Rain
11:53 PM 55.0 °F - N/A% 29.55 in 6.0 mi ENE 3.5 mph - 0.08 in Rain Rain